owner,sensor,date,latitude,longitude,vertical_datum,wind_speed,wind_to_direction,wind_speed_of_gust,qcFlag 
TCOON,ioos:station:TCOON:003:1,2013-10-01T18:42:00Z,26.8015,-97.4706,0.0,8.4,151.0,9.7,'11111222,11111222,11111222' 
TCOON,ioos:station:TCOON:003:1,2013-10-01T18:48:00Z,26.8015,-97.4706,0.0,7.6,156.0,9.2,'11111222,11111222,11111222' 
TCOON,ioos:station:TCOON:003:1,2013-10-01T18:54:00Z,26.8015,-97.4706,0.0,8.8,153.0,10.5,'11111222,11111222,11111222' 
TCOON,ioos:station:TCOON:003:1,2013-10-01T19:00:00Z,26.8015,-97.4706,0.0,8.2,150.0,10.2,'11111222,11111222,11111222' 
TCOON,ioos:station:TCOON:003:1,2013-10-01T19:06:00Z,26.8015,-97.4706,0.0,8.6,149.0,10.1,'11111222,11111222,11111222' 
TCOON,ioos:station:TCOON:003:1,2013-10-01T19:12:00Z,26.8015,-97.4706,0.0,8.7,155.0,10.0,'11111222,11111222,11111222' 
TCOON,ioos:station:TCOON:003:1,2013-10-01T19:18:00Z,26.8015,-97.4706,0.0,8.4,153.0,9.8,'11111222,11111222,11111222' 
TCOON,ioos:station:TCOON:003:1,2013-10-01T19:24:00Z,26.8015,-97.4706,0.0,9.3,150.0,10.3,'1111122,1111122,1111122' 
TCOON,ioos:station:TCOON:003:1,2013-10-01T19:30:00Z,26.8015,-97.4706,0.0,8.8,152.0,10.1,'11111222,11111222,11111222' 
TCOON,ioos:station:TCOON:003:1,2013-10-01T19:36:00Z,26.8015,-97.4706,0.0,9.0,159.0,10.0,'11111222,11111222,11111222' 
TCOON,ioos:station:TCOON:003:1,2013-10-01T19:42:00Z,26.8015,-97.4706,0.0,9.7,159.0,11.1,'11111222,11111222,11111222' 
TCOON,ioos:station:TCOON:003:1,2013-10-01T19:48:00Z,26.8015,-97.4706,0.0,9.5,160.0,10.5,'11111222,11111222,11111222' 
TCOON,ioos:station:TCOON:003:1,2013-10-01T19:54:00Z,26.8015,-97.4706,0.0,9.3,160.0,10.8,'1111122,1111122,1111122' 
TCOON,ioos:station:TCOON:003:1,2013-10-01T20:00:00Z,26.8015,-97.4706,0.0,9.9,156.0,11.1,'11111222,11111222,11111222' 
TCOON,ioos:station:TCOON:003:1,2013-10-01T20:06:00Z,26.8015,-97.4706,0.0,9.4,157.0,11.7,'11111222,11111222,11111222' 
TCOON,ioos:station:TCOON:003:1,2013-10-01T20:12:00Z,26.8015,-97.4706,0.0,9.0,160.0,10.4,'11111222,11111222,11111222' 
TCOON,ioos:station:TCOON:003:1,2013-10-01T20:18:00Z,26.8015,-97.4706,0.0,9.1,157.0,10.2,'11111222,11111222,11111222' 
TCOON,ioos:station:TCOON:003:1,2013-10-01T20:24:00Z,26.8015,-97.4706,0.0,8.8,156.0,10.5,'11111222,11111222,11111222' 
TCOON,ioos:station:TCOON:003:1,2013-10-01T20:30:00Z,26.8015,-97.4706,0.0,8.9,155.0,9.9,'11111222,11111222,11111222' 
TCOON,ioos:station:TCOON:003:1,2013-10-01T20:36:00Z,26.8015,-97.4706,0.0,8.4,153.0,9.7,'11111222,11111222,11111222' 
TCOON,ioos:station:TCOON:003:1,2013-10-01T20:42:00Z,26.8015,-97.4706,0.0,8.3,154.0,9.8,'11111222,11111222,11111222' 
TCOON,ioos:station:TCOON:003:1,2013-10-01T20:48:00Z,26.8015,-97.4706,0.0,8.2,150.0,9.3,'1111122,1111122,1111122' 
TCOON,ioos:station:TCOON:003:1,2013-10-01T20:54:00Z,26.8015,-97.4706,0.0,8.3,147.0,9.2,'11111222,11111222,11111222' 
TCOON,ioos:station:TCOON:003:1,2013-10-01T21:00:00Z,26.8015,-97.4706,0.0,8.3,148.0,9.0,'11111222,11111222,11111222' 
TCOON,ioos:station:TCOON:003:1,2013-10-01T21:06:00Z,26.8015,-97.4706,0.0,8.0,149.0,9.3,'11111222,11111222,11111222' 
TCOON,ioos:station:TCOON:003:1,2013-10-01T21:12:00Z,26.8015,-97.4706,0.0,7.6,149.0,8.6,'11111222,11111222,11111222' 
TCOON,ioos:station:TCOON:003:1,2013-10-01T21:18:00Z,26.8015,-97.4706,0.0,7.6,146.0,8.9,'11111222,11111222,11111222' 
TCOON,ioos:station:TCOON:003:1,2013-10-01T21:24:00Z,26.8015,-97.4706,0.0,7.7,150.0,9.3,'1111122,1111122,1111122' 
TCOON,ioos:station:TCOON:003:1,2013-10-01T21:30:00Z,26.8015,-97.4706,0.0,7.6,139.0,9.5,'11111222,11111222,11111222' 
TCOON,ioos:station:TCOON:003:1,2013-10-01T21:36:00Z,26.8015,-97.4706,0.0,8.6,133.0,9.6,'11111222,11111222,11111222' 
TCOON,ioos:station:TCOON:003:1,2013-10-01T21:42:00Z,26.8015,-97.4706,0.0,8.3,133.0,9.5,'11111222,11111222,11111222' 
TCOON,ioos:station:TCOON:003:1,2013-10-01T21:48:00Z,26.8015,-97.4706,0.0,8.1,137.0,9.8,'11111222,11111222,11111222' 
TCOON,ioos:station:TCOON:003:1,2013-10-01T21:54:00Z,26.8015,-97.4706,0.0,8.9,136.0,10.0,'11111222,11111222,11111222' 
TCOON,ioos:station:TCOON:003:1,2013-10-01T22:00:00Z,26.8015,-97.4706,0.0,8.8,140.0,10.8,'1111122,1111122,1111122' 
TCOON,ioos:station:TCOON:003:1,2013-10-01T22:06:00Z,26.8015,-97.4706,0.0,9.0,138.0,10.6,'11111222,11111222,11111222' 
TCOON,ioos:station:TCOON:003:1,2013-10-01T22:12:00Z,26.8015,-97.4706,0.0,9.3,140.0,11.4,'11111222,11111222,11111222' 
TCOON,ioos:station:TCOON:003:1,2013-10-01T22:18:00Z,26.8015,-97.4706,0.0,9.2,142.0,10.7,'11111222,11111222,11111222' 
TCOON,ioos:station:TCOON:003:1,2013-10-01T22:24:00Z,26.8015,-97.4706,0.0,9.3,140.0,10.8,'1111122,1111122,1111122' 
TCOON,ioos:station:TCOON:003:1,2013-10-01T22:30:00Z,26.8015,-97.4706,0.0,9.0,140.0,10.7,'11111222,11111222,11111222' 
TCOON,ioos:station:TCOON:003:1,2013-10-01T22:36:00Z,26.8015,-97.4706,0.0,8.8,140.0,10.3,'1111122,1111122,1111122' 
TCOON,ioos:station:TCOON:003:1,2013-10-01T22:42:00Z,26.8015,-97.4706,0.0,9.3,141.0,11.3,'11111222,11111222,11111222' 
TCOON,ioos:station:TCOON:003:1,2013-10-01T22:48:00Z,26.8015,-97.4706,0.0,9.8,140.0,10.8,'1111122,1111122,1111122' 
TCOON,ioos:station:TCOON:003:1,2013-10-01T22:54:00Z,26.8015,-97.4706,0.0,9.3,140.0,10.8,'1111122,1111122,1111122' 
TCOON,ioos:station:TCOON:003:1,2013-10-01T23:00:00Z,26.8015,-97.4706,0.0,9.2,136.0,10.6,'11111222,11111222,11111222' 
TCOON,ioos:station:TCOON:003:1,2013-10-01T23:06:00Z,26.8015,-97.4706,0.0,9.4,137.0,10.7,'11111222,11111222,11111222' 
TCOON,ioos:station:TCOON:003:1,2013-10-01T23:12:00Z,26.8015,-97.4706,0.0,10.1,137.0,11.5,'11111222,11111222,11111222' 
TCOON,ioos:station:TCOON:003:1,2013-10-01T23:18:00Z,26.8015,-97.4706,0.0,9.4,137.0,11.7,'11111222,11111222,11111222' 
TCOON,ioos:station:TCOON:003:1,2013-10-01T23:24:00Z,26.8015,-97.4706,0.0,9.6,137.0,10.9,'11111222,11111222,11111222' 
TCOON,ioos:station:TCOON:003:1,2013-10-01T23:30:00Z,26.8015,-97.4706,0.0,9.0,137.0,10.6,'11111222,11111222,11111222' 
TCOON,ioos:station:TCOON:003:1,2013-10-01T23:36:00Z,26.8015,-97.4706,0.0,10.1,136.0,11.1,'11111222,11111222,11111222' 
TCOON,ioos:station:TCOON:003:1,2013-10-01T23:42:00Z,26.8015,-97.4706,0.0,9.9,141.0,11.4,'11111222,11111222,11111222' 
TCOON,ioos:station:TCOON:003:1,2013-10-01T23:48:00Z,26.8015,-97.4706,0.0,9.7,143.0,11.1,'11111222,11111222,11111222' 
TCOON,ioos:station:TCOON:003:1,2013-10-01T23:54:00Z,26.8015,-97.4706,0.0,9.8,143.0,11.3,'11111222,11111222,11111222' 
TCOON,ioos:station:TCOON:003:1,2013-10-02T00:00:00Z,26.8015,-97.4706,0.0,10.0,142.0,11.3,'11111222,11111222,11111222' 
TCOON,ioos:station:TCOON:003:1,2013-10-02T00:06:00Z,26.8015,-97.4706,0.0,9.8,144.0,11.2,'11111222,11111222,11111222' 
TCOON,ioos:station:TCOON:003:1,2013-10-02T00:12:00Z,26.8015,-97.4706,0.0,9.9,144.0,11.2,'11111222,11111222,11111222' 
TCOON,ioos:station:TCOON:003:1,2013-10-02T00:18:00Z,26.8015,-97.4706,0.0,9.7,148.0,11.1,'11111222,11111222,11111222' 
TCOON,ioos:station:TCOON:003:1,2013-10-02T00:24:00Z,26.8015,-97.4706,0.0,8.8,146.0,10.1,'11111222,11111222,11111222' 
TCOON,ioos:station:TCOON:003:1,2013-10-02T00:30:00Z,26.8015,-97.4706,0.0,10.2,149.0,11.4,'11111222,11111222,11111222' 
TCOON,ioos:station:TCOON:003:1,2013-10-02T00:36:00Z,26.8015,-97.4706,0.0,9.8,150.0,11.3,'1111122,1111122,1111122' 
TCOON,ioos:station:TCOON:003:1,2013-10-02T00:42:00Z,26.8015,-97.4706,0.0,8.9,144.0,10.7,'11111222,11111222,11111222' 
TCOON,ioos:station:TCOON:003:1,2013-10-02T00:48:00Z,26.8015,-97.4706,0.0,8.2,140.0,10.3,'1111122,1111122,1111122' 
TCOON,ioos:station:TCOON:003:1,2013-10-02T00:54:00Z,26.8015,-97.4706,0.0,8.3,146.0,10.2,'11111222,11111222,11111222' 
TCOON,ioos:station:TCOON:003:1,2013-10-02T01:00:00Z,26.8015,-97.4706,0.0,9.1,138.0,10.8,'11111222,11111222,11111222' 
TCOON,ioos:station:TCOON:003:1,2013-10-02T01:06:00Z,26.8015,-97.4706,0.0,9.1,137.0,10.2,'11111222,11111222,11111222' 
TCOON,ioos:station:TCOON:003:1,2013-10-02T01:12:00Z,26.8015,-97.4706,0.0,8.9,139.0,10.0,'11111222,11111222,11111222' 
TCOON,ioos:station:TCOON:003:1,2013-10-02T01:18:00Z,26.8015,-97.4706,0.0,9.0,137.0,10.7,'11111222,11111222,11111222' 
TCOON,ioos:station:TCOON:003:1,2013-10-02T01:24:00Z,26.8015,-97.4706,0.0,8.2,137.0,10.3,'11111222,11111222,11111222' 
TCOON,ioos:station:TCOON:003:1,2013-10-02T01:30:00Z,26.8015,-97.4706,0.0,8.0,138.0,9.3,'11111222,11111222,11111222' 
TCOON,ioos:station:TCOON:003:1,2013-10-02T01:36:00Z,26.8015,-97.4706,0.0,8.0,142.0,10.3,'11111222,11111222,11111222' 
TCOON,ioos:station:TCOON:003:1,2013-10-02T01:42:00Z,26.8015,-97.4706,0.0,8.5,145.0,9.6,'11111222,11111222,11111222' 
TCOON,ioos:station:TCOON:003:1,2013-10-02T01:48:00Z,26.8015,-97.4706,0.0,7.7,140.0,9.3,'1111122,1111122,1111122' 
TCOON,ioos:station:TCOON:003:1,2013-10-02T01:54:00Z,26.8015,-97.4706,0.0,8.1,143.0,9.6,'11111222,11111222,11111222' 
TCOON,ioos:station:TCOON:003:1,2013-10-02T02:00:00Z,26.8015,-97.4706,0.0,7.4,143.0,9.2,'11111222,11111222,11111222' 
TCOON,ioos:station:TCOON:003:1,2013-10-02T02:06:00Z,26.8015,-97.4706,0.0,7.7,144.0,9.0,'11111222,11111222,11111222' 
TCOON,ioos:station:TCOON:003:1,2013-10-02T02:12:00Z,26.8015,-97.4706,0.0,7.8,141.0,9.2,'11111222,11111222,11111222' 
TCOON,ioos:station:TCOON:003:1,2013-10-02T02:18:00Z,26.8015,-97.4706,0.0,7.7,144.0,8.8,'11111222,11111222,11111222' 
TCOON,ioos:station:TCOON:003:1,2013-10-02T02:24:00Z,26.8015,-97.4706,0.0,7.2,140.0,8.2,'1111122,1111122,1111122' 
TCOON,ioos:station:TCOON:003:1,2013-10-02T02:30:00Z,26.8015,-97.4706,0.0,7.8,145.0,8.9,'11111222,11111222,11111222' 
TCOON,ioos:station:TCOON:003:1,2013-10-02T02:36:00Z,26.8015,-97.4706,0.0,7.3,147.0,8.7,'11111222,11111222,11111222' 
TCOON,ioos:station:TCOON:003:1,2013-10-02T02:42:00Z,26.8015,-97.4706,0.0,7.5,149.0,9.3,'11111222,11111222,11111222' 
TCOON,ioos:station:TCOON:003:1,2013-10-02T02:48:00Z,26.8015,-97.4706,0.0,7.7,150.0,9.3,'1111122,1111122,1111122' 
TCOON,ioos:station:TCOON:003:1,2013-10-02T02:54:00Z,26.8015,-97.4706,0.0,8.7,152.0,9.8,'11111222,11111222,11111222' 
TCOON,ioos:station:TCOON:003:1,2013-10-02T03:00:00Z,26.8015,-97.4706,0.0,8.5,151.0,10.0,'11111222,11111222,11111222' 
TCOON,ioos:station:TCOON:003:1,2013-10-02T03:06:00Z,26.8015,-97.4706,0.0,8.4,148.0,10.1,'11111222,11111222,11111222' 
TCOON,ioos:station:TCOON:003:1,2013-10-02T03:12:00Z,26.8015,-97.4706,0.0,8.0,144.0,9.7,'11111222,11111222,11111222' 
TCOON,ioos:station:TCOON:003:1,2013-10-02T03:18:00Z,26.8015,-97.4706,0.0,8.0,145.0,9.2,'11111222,11111222,11111222' 
TCOON,ioos:station:TCOON:003:1,2013-10-02T03:24:00Z,26.8015,-97.4706,0.0,7.6,141.0,8.8,'11111222,11111222,11111222' 
TCOON,ioos:station:TCOON:003:1,2013-10-02T03:30:00Z,26.8015,-97.4706,0.0,7.2,140.0,8.2,'1111122,1111122,1111122' 
TCOON,ioos:station:TCOON:003:1,2013-10-02T03:36:00Z,26.8015,-97.4706,0.0,7.1,147.0,8.5,'11111222,11111222,11111222' 
TCOON,ioos:station:TCOON:003:1,2013-10-02T03:42:00Z,26.8015,-97.4706,0.0,6.7,146.0,8.1,'11111222,11111222,11111222' 
TCOON,ioos:station:TCOON:003:1,2013-10-02T03:48:00Z,26.8015,-97.4706,0.0,7.4,148.0,8.2,'11111222,11111222,11111222' 
TCOON,ioos:station:TCOON:003:1,2013-10-02T03:54:00Z,26.8015,-97.4706,0.0,6.7,150.0,7.7,'1111122,1111122,1111122' 
TCOON,ioos:station:TCOON:003:1,2013-10-02T04:00:00Z,26.8015,-97.4706,0.0,7.2,151.0,8.6,'11111222,11111222,11111222' 
TCOON,ioos:station:TCOON:003:1,2013-10-02T04:06:00Z,26.8015,-97.4706,0.0,6.8,151.0,8.4,'11111222,11111222,11111222' 
TCOON,ioos:station:TCOON:003:1,2013-10-02T04:12:00Z,26.8015,-97.4706,0.0,7.0,150.0,8.1,'11111222,11111222,11111222' 
TCOON,ioos:station:TCOON:003:1,2013-10-02T04:18:00Z,26.8015,-97.4706,0.0,7.6,154.0,8.7,'11111222,11111222,11111222' 
TCOON,ioos:station:TCOON:003:1,2013-10-02T04:24:00Z,26.8015,-97.4706,0.0,7.7,160.0,8.8,'1111122,1111122,1111122' 
TCOON,ioos:station:TCOON:003:1,2013-10-02T04:30:00Z,26.8015,-97.4706,0.0,7.2,157.0,9.0,'11111222,11111222,11111222' 
TCOON,ioos:station:TCOON:003:1,2013-10-02T04:36:00Z,26.8015,-97.4706,0.0,8.1,157.0,9.2,'11111222,11111222,11111222' 
TCOON,ioos:station:TCOON:003:1,2013-10-02T04:42:00Z,26.8015,-97.4706,0.0,8.2,157.0,9.0,'11111222,11111222,11111222' 
TCOON,ioos:station:TCOON:003:1,2013-10-02T04:48:00Z,26.8015,-97.4706,0.0,7.9,158.0,9.0,'11111222,11111222,11111222' 
TCOON,ioos:station:TCOON:003:1,2013-10-02T04:54:00Z,26.8015,-97.4706,0.0,7.8,154.0,8.7,'11111222,11111222,11111222' 
TCOON,ioos:station:TCOON:003:1,2013-10-02T05:00:00Z,26.8015,-97.4706,0.0,8.4,159.0,9.3,'11111222,11111222,11111222' 
TCOON,ioos:station:TCOON:003:1,2013-10-02T05:06:00Z,26.8015,-97.4706,0.0,7.6,164.0,9.0,'11111222,11111222,11111222' 
TCOON,ioos:station:TCOON:003:1,2013-10-02T05:12:00Z,26.8015,-97.4706,0.0,7.5,157.0,8.9,'11111222,11111222,11111222' 
TCOON,ioos:station:TCOON:003:1,2013-10-02T05:18:00Z,26.8015,-97.4706,0.0,8.4,160.0,9.3,'11111222,11111222,11111222' 
TCOON,ioos:station:TCOON:003:1,2013-10-02T05:24:00Z,26.8015,-97.4706,0.0,7.4,158.0,9.4,'11111222,11111222,11111222' 
TCOON,ioos:station:TCOON:003:1,2013-10-02T05:30:00Z,26.8015,-97.4706,0.0,7.6,158.0,9.3,'11111222,11111222,11111222' 
TCOON,ioos:station:TCOON:003:1,2013-10-02T05:36:00Z,26.8015,-97.4706,0.0,7.7,160.0,8.2,'1111122,1111122,1111122' 
TCOON,ioos:station:TCOON:003:1,2013-10-02T05:42:00Z,26.8015,-97.4706,0.0,7.8,153.0,8.9,'11111222,11111222,11111222' 
TCOON,ioos:station:TCOON:003:1,2013-10-02T05:48:00Z,26.8015,-97.4706,0.0,6.8,155.0,8.9,'11111222,11111222,11111222' 
TCOON,ioos:station:TCOON:003:1,2013-10-02T05:54:00Z,26.8015,-97.4706,0.0,7.7,160.0,8.8,'1111122,1111122,1111122' 
TCOON,ioos:station:TCOON:003:1,2013-10-02T06:00:00Z,26.8015,-97.4706,0.0,7.9,151.0,8.8,'11111222,11111222,11111222' 
TCOON,ioos:station:TCOON:003:1,2013-10-02T06:06:00Z,26.8015,-97.4706,0.0,7.6,156.0,9.1,'11111222,11111222,11111222' 
TCOON,ioos:station:TCOON:003:1,2013-10-02T06:12:00Z,26.8015,-97.4706,0.0,7.6,154.0,9.0,'11111222,11111222,11111222' 
TCOON,ioos:station:TCOON:003:1,2013-10-02T06:18:00Z,26.8015,-97.4706,0.0,7.9,162.0,9.1,'11111222,11111222,11111222' 
TCOON,ioos:station:TCOON:003:1,2013-10-02T06:24:00Z,26.8015,-97.4706,0.0,7.4,158.0,9.1,'11111222,11111222,11111222' 
TCOON,ioos:station:TCOON:003:1,2013-10-02T06:30:00Z,26.8015,-97.4706,0.0,8.3,164.0,9.4,'11111222,11111222,11111222' 
TCOON,ioos:station:TCOON:003:1,2013-10-02T06:36:00Z,26.8015,-97.4706,0.0,6.5,170.0,9.5,'11111222,11111222,11111222' 
TCOON,ioos:station:TCOON:003:1,2013-10-02T06:42:00Z,26.8015,-97.4706,0.0,6.0,182.0,7.3,'11111222,11111222,11111222' 
TCOON,ioos:station:TCOON:003:1,2013-10-02T06:48:00Z,26.8015,-97.4706,0.0,5.7,190.0,6.7,'1111122,1111122,1111122' 
TCOON,ioos:station:TCOON:003:1,2013-10-02T06:54:00Z,26.8015,-97.4706,0.0,6.1,190.0,7.2,'11111222,11111222,11111222' 
TCOON,ioos:station:TCOON:003:1,2013-10-02T07:00:00Z,26.8015,-97.4706,0.0,6.0,189.0,6.9,'11111222,11111222,11111222' 
TCOON,ioos:station:TCOON:003:1,2013-10-02T07:06:00Z,26.8015,-97.4706,0.0,5.7,185.0,6.9,'11111222,11111222,11111222' 
TCOON,ioos:station:TCOON:003:1,2013-10-02T07:12:00Z,26.8015,-97.4706,0.0,6.1,179.0,6.9,'11111222,11111222,11111222' 
TCOON,ioos:station:TCOON:003:1,2013-10-02T07:18:00Z,26.8015,-97.4706,0.0,5.9,180.0,7.0,'11111222,11111222,11111222' 
TCOON,ioos:station:TCOON:003:1,2013-10-02T07:24:00Z,26.8015,-97.4706,0.0,5.9,181.0,6.8,'11111222,11111222,11111222' 
TCOON,ioos:station:TCOON:003:1,2013-10-02T07:30:00Z,26.8015,-97.4706,0.0,6.1,179.0,6.9,'11111222,11111222,11111222' 
TCOON,ioos:station:TCOON:003:1,2013-10-02T07:36:00Z,26.8015,-97.4706,0.0,6.7,180.0,7.7,'1111122,1111122,1111122' 
TCOON,ioos:station:TCOON:003:1,2013-10-02T07:42:00Z,26.8015,-97.4706,0.0,5.9,178.0,7.4,'11111222,11111222,11111222' 
TCOON,ioos:station:TCOON:003:1,2013-10-02T07:48:00Z,26.8015,-97.4706,0.0,6.2,180.0,7.7,'1111122,1111122,1111122' 
TCOON,ioos:station:TCOON:003:1,2013-10-02T07:54:00Z,26.8015,-97.4706,0.0,7.4,174.0,8.0,'11111222,11111222,11111222' 
TCOON,ioos:station:TCOON:003:1,2013-10-02T08:00:00Z,26.8015,-97.4706,0.0,6.6,177.0,8.1,'11111222,11111222,11111222' 
TCOON,ioos:station:TCOON:003:1,2013-10-02T08:06:00Z,26.8015,-97.4706,0.0,6.4,169.0,7.6,'11111222,11111222,11111222' 
TCOON,ioos:station:TCOON:003:1,2013-10-02T08:12:00Z,26.8015,-97.4706,0.0,7.7,162.0,8.8,'11111222,11111222,11111222' 
TCOON,ioos:station:TCOON:003:1,2013-10-02T08:18:00Z,26.8015,-97.4706,0.0,7.2,169.0,8.5,'11111222,11111222,11111222' 
TCOON,ioos:station:TCOON:003:1,2013-10-02T08:24:00Z,26.8015,-97.4706,0.0,7.1,163.0,9.1,'11111222,11111222,11111222' 
TCOON,ioos:station:TCOON:003:1,2013-10-02T08:30:00Z,26.8015,-97.4706,0.0,7.8,164.0,8.9,'11111222,11111222,11111222' 
TCOON,ioos:station:TCOON:003:1,2013-10-02T08:36:00Z,26.8015,-97.4706,0.0,8.2,170.0,9.8,'1111122,1111122,1111122' 
TCOON,ioos:station:TCOON:003:1,2013-10-02T08:42:00Z,26.8015,-97.4706,0.0,8.3,166.0,9.4,'11111222,11111222,11111222' 
TCOON,ioos:station:TCOON:003:1,2013-10-02T08:48:00Z,26.8015,-97.4706,0.0,8.2,170.0,9.3,'1111122,1111122,1111122' 
TCOON,ioos:station:TCOON:003:1,2013-10-02T08:54:00Z,26.8015,-97.4706,0.0,7.7,168.0,9.3,'11111222,11111222,11111222' 
TCOON,ioos:station:TCOON:003:1,2013-10-02T09:00:00Z,26.8015,-97.4706,0.0,7.6,171.0,9.0,'11111222,11111222,11111222' 
TCOON,ioos:station:TCOON:003:1,2013-10-02T09:06:00Z,26.8015,-97.4706,0.0,7.2,177.0,9.6,'11111222,11111222,11111222' 
TCOON,ioos:station:TCOON:003:1,2013-10-02T09:12:00Z,26.8015,-97.4706,0.0,7.6,172.0,9.3,'11111222,11111222,11111222' 
TCOON,ioos:station:TCOON:003:1,2013-10-02T09:18:00Z,26.8015,-97.4706,0.0,7.8,170.0,9.0,'11111222,11111222,11111222' 
TCOON,ioos:station:TCOON:003:1,2013-10-02T09:24:00Z,26.8015,-97.4706,0.0,8.2,160.0,9.3,'1111122,1111122,1111122' 
TCOON,ioos:station:TCOON:003:1,2013-10-02T09:30:00Z,26.8015,-97.4706,0.0,8.0,166.0,9.6,'11111222,11111222,11111222' 
TCOON,ioos:station:TCOON:003:1,2013-10-02T09:36:00Z,26.8015,-97.4706,0.0,8.2,166.0,9.4,'11111222,11111222,11111222' 
TCOON,ioos:station:TCOON:003:1,2013-10-02T09:42:00Z,26.8015,-97.4706,0.0,7.9,169.0,9.5,'11111222,11111222,11111222' 
TCOON,ioos:station:TCOON:003:1,2013-10-02T09:48:00Z,26.8015,-97.4706,0.0,8.0,171.0,9.3,'11111222,11111222,11111222' 
TCOON,ioos:station:TCOON:003:1,2013-10-02T09:54:00Z,26.8015,-97.4706,0.0,8.2,165.0,9.3,'11111222,11111222,11111222' 
TCOON,ioos:station:TCOON:003:1,2013-10-02T10:00:00Z,26.8015,-97.4706,0.0,8.3,165.0,9.2,'11111222,11111222,11111222' 
TCOON,ioos:station:TCOON:003:1,2013-10-02T10:06:00Z,26.8015,-97.4706,0.0,7.8,172.0,8.9,'11111222,11111222,11111222' 
TCOON,ioos:station:TCOON:003:1,2013-10-02T10:12:00Z,26.8015,-97.4706,0.0,7.7,164.0,9.1,'11111222,11111222,11111222' 
TCOON,ioos:station:TCOON:003:1,2013-10-02T10:18:00Z,26.8015,-97.4706,0.0,7.5,171.0,8.8,'11111222,11111222,11111222' 
TCOON,ioos:station:TCOON:003:1,2013-10-02T10:24:00Z,26.8015,-97.4706,0.0,6.2,170.0,9.3,'1111122,1111122,1111122' 
TCOON,ioos:station:TCOON:003:1,2013-10-02T10:30:00Z,26.8015,-97.4706,0.0,6.4,185.0,8.6,'11111222,11111222,11111222' 
TCOON,ioos:station:TCOON:003:1,2013-10-02T10:36:00Z,26.8015,-97.4706,0.0,5.7,186.0,7.7,'11111222,11111222,11111222' 
TCOON,ioos:station:TCOON:003:1,2013-10-02T10:42:00Z,26.8015,-97.4706,0.0,5.6,186.0,6.6,'11111222,11111222,11111222' 
TCOON,ioos:station:TCOON:003:1,2013-10-02T10:48:00Z,26.8015,-97.4706,0.0,5.2,186.0,6.3,'11111222,11111222,11111222' 
TCOON,ioos:station:TCOON:003:1,2013-10-02T10:54:00Z,26.8015,-97.4706,0.0,5.1,190.0,5.7,'1111122,1111122,1111122' 
TCOON,ioos:station:TCOON:003:1,2013-10-02T11:00:00Z,26.8015,-97.4706,0.0,5.4,182.0,6.3,'11111222,11111222,11111222' 
TCOON,ioos:station:TCOON:003:1,2013-10-02T11:06:00Z,26.8015,-97.4706,0.0,5.2,183.0,6.3,'11111222,11111222,11111222' 
TCOON,ioos:station:TCOON:003:1,2013-10-02T11:12:00Z,26.8015,-97.4706,0.0,5.4,180.0,6.1,'11111222,11111222,11111222' 
TCOON,ioos:station:TCOON:003:1,2013-10-02T11:18:00Z,26.8015,-97.4706,0.0,5.3,178.0,6.2,'11111222,11111222,11111222' 
TCOON,ioos:station:TCOON:003:1,2013-10-02T11:24:00Z,26.8015,-97.4706,0.0,6.2,170.0,7.7,'1111122,1111122,1111122' 
TCOON,ioos:station:TCOON:003:1,2013-10-02T11:30:00Z,26.8015,-97.4706,0.0,6.4,171.0,7.4,'11111222,11111222,11111222' 
TCOON,ioos:station:TCOON:003:1,2013-10-02T11:36:00Z,26.8015,-97.4706,0.0,7.5,166.0,8.8,'11111222,11111222,11111222' 
TCOON,ioos:station:TCOON:003:1,2013-10-02T11:42:00Z,26.8015,-97.4706,0.0,7.8,169.0,8.5,'11111222,11111222,11111222' 
TCOON,ioos:station:TCOON:003:1,2013-10-02T11:48:00Z,26.8015,-97.4706,0.0,7.2,170.0,8.2,'1111122,1111122,1111122' 
TCOON,ioos:station:TCOON:003:1,2013-10-02T11:54:00Z,26.8015,-97.4706,0.0,7.0,170.0,8.3,'11111222,11111222,11111222' 
TCOON,ioos:station:TCOON:003:1,2013-10-02T12:00:00Z,26.8015,-97.4706,0.0,6.8,173.0,7.8,'11111222,11111222,11111222' 
TCOON,ioos:station:TCOON:003:1,2013-10-02T12:06:00Z,26.8015,-97.4706,0.0,7.0,165.0,8.0,'11111222,11111222,11111222' 
TCOON,ioos:station:TCOON:003:1,2013-10-02T12:12:00Z,26.8015,-97.4706,0.0,6.7,165.0,7.8,'11111222,11111222,11111222' 
TCOON,ioos:station:TCOON:003:1,2013-10-02T12:18:00Z,26.8015,-97.4706,0.0,6.5,165.0,7.7,'11111222,11111222,11111222' 
TCOON,ioos:station:TCOON:003:1,2013-10-02T12:24:00Z,26.8015,-97.4706,0.0,7.7,165.0,8.5,'11111222,11111222,11111222' 
TCOON,ioos:station:TCOON:003:1,2013-10-02T12:30:00Z,26.8015,-97.4706,0.0,6.3,171.0,7.8,'11111222,11111222,11111222' 
TCOON,ioos:station:TCOON:003:1,2013-10-02T12:36:00Z,26.8015,-97.4706,0.0,6.7,160.0,7.2,'1111122,1111122,1111122' 
TCOON,ioos:station:TCOON:003:1,2013-10-02T12:42:00Z,26.8015,-97.4706,0.0,7.1,166.0,8.2,'11111222,11111222,11111222' 
TCOON,ioos:station:TCOON:003:1,2013-10-02T12:48:00Z,26.8015,-97.4706,0.0,6.4,178.0,7.9,'11111222,11111222,11111222' 
TCOON,ioos:station:TCOON:003:1,2013-10-02T12:54:00Z,26.8015,-97.4706,0.0,5.1,190.0,6.2,'1111122,1111122,1111122' 
TCOON,ioos:station:TCOON:003:1,2013-10-02T13:00:00Z,26.8015,-97.4706,0.0,5.0,185.0,6.2,'11111222,11111222,11111222' 
TCOON,ioos:station:TCOON:003:1,2013-10-02T13:06:00Z,26.8015,-97.4706,0.0,5.0,186.0,6.3,'11111222,11111222,11111222' 
TCOON,ioos:station:TCOON:003:1,2013-10-02T13:12:00Z,26.8015,-97.4706,0.0,4.7,192.0,5.4,'11111222,11111222,11111222' 
TCOON,ioos:station:TCOON:003:1,2013-10-02T13:18:00Z,26.8015,-97.4706,0.0,4.8,186.0,5.5,'11111222,11111222,11111222' 
TCOON,ioos:station:TCOON:003:1,2013-10-02T13:24:00Z,26.8015,-97.4706,0.0,5.0,180.0,6.0,'11111222,11111222,11111222' 
TCOON,ioos:station:TCOON:003:1,2013-10-02T13:30:00Z,26.8015,-97.4706,0.0,5.5,178.0,6.2,'11111222,11111222,11111222' 
TCOON,ioos:station:TCOON:003:1,2013-10-02T13:36:00Z,26.8015,-97.4706,0.0,5.7,180.0,7.2,'1111122,1111122,1111122' 
TCOON,ioos:station:TCOON:003:1,2013-10-02T13:42:00Z,26.8015,-97.4706,0.0,5.4,178.0,6.2,'11111222,11111222,11111222' 
TCOON,ioos:station:TCOON:003:1,2013-10-02T13:48:00Z,26.8015,-97.4706,0.0,5.4,173.0,6.4,'11111222,11111222,11111222' 
TCOON,ioos:station:TCOON:003:1,2013-10-02T13:54:00Z,26.8015,-97.4706,0.0,5.7,170.0,6.2,'1111122,1111122,1111122' 
TCOON,ioos:station:TCOON:003:1,2013-10-02T14:00:00Z,26.8015,-97.4706,0.0,4.7,169.0,5.5,'11111222,11111222,11111222' 
TCOON,ioos:station:TCOON:003:1,2013-10-02T14:06:00Z,26.8015,-97.4706,0.0,4.6,172.0,6.1,'11111222,11111222,11111222' 
TCOON,ioos:station:TCOON:003:1,2013-10-02T14:12:00Z,26.8015,-97.4706,0.0,4.7,172.0,6.1,'11111222,11111222,11111222' 
TCOON,ioos:station:TCOON:003:1,2013-10-02T14:18:00Z,26.8015,-97.4706,0.0,4.9,172.0,5.6,'11111222,11111222,11111222' 
TCOON,ioos:station:TCOON:003:1,2013-10-02T14:24:00Z,26.8015,-97.4706,0.0,4.8,177.0,5.6,'11111222,11111222,11111222' 
TCOON,ioos:station:TCOON:003:1,2013-10-02T14:30:00Z,26.8015,-97.4706,0.0,5.1,170.0,6.2,'1111122,1111122,1111122' 
TCOON,ioos:station:TCOON:003:1,2013-10-02T14:36:00Z,26.8015,-97.4706,0.0,5.3,167.0,5.9,'11111222,11111222,11111222' 
TCOON,ioos:station:TCOON:003:1,2013-10-02T14:42:00Z,26.8015,-97.4706,0.0,4.7,169.0,5.7,'11111222,11111222,11111222' 
TCOON,ioos:station:TCOON:003:1,2013-10-02T14:48:00Z,26.8015,-97.4706,0.0,5.1,160.0,6.2,'1111122,1111122,1111122' 
TCOON,ioos:station:TCOON:003:1,2013-10-02T14:54:00Z,26.8015,-97.4706,0.0,4.6,167.0,5.7,'11111222,11111222,11111222' 
TCOON,ioos:station:TCOON:003:1,2013-10-02T15:00:00Z,26.8015,-97.4706,0.0,4.9,167.0,5.5,'11111222,11111222,11111222' 